Regional Weather Roundup
Issued by NWS

Home | Current Version | Previous Version | Text Only | Print | Product List | Glossary Off
Versions: 1 2 3 4 5 6 7 8 9 10 11 12 13 14 15 16 17 18 19 20 21 22 23 24 25 26 27 28 29 30 31 32 33 34 35 36 37 38 39 40 41 42 43 44 45 46 47 48 49 50

000
ASUS43 KDMX 230106
RWRIA

WEATHER ROUNDUP FOR IOWA
NATIONAL WEATHER SERVICE DES MOINES IA
800 PM CDT SUN OCT 22 2017

NOTE: "FAIR" INDICATES FEW OR NO CLOUDS BELOW 12,000 FEET WITH NO
SIGNIFICANT WEATHER AND/OR OBSTRUCTIONS TO VISIBILITY.

* - THESE STATIONS ARE NOT NWS STATIONS...THUS NOT UNDER NWS
QUALITY CONTROL.  THEY ALSO DO NOT REPORT WEATHER SUCH
AS PRECIPITATION OR FOG.

IAZ001>003-012>014-020>022-031>034-043>046-230200-
   NORTHWEST IOWA

CITY           SKY/WX    TMP DP  RH WIND       PRES   REMARKS
CHEROKEE *     CLEAR     54  34  47 S10       29.96S
DENISON *      CLEAR     55  34  44 S12       30.00F
LE MARS *      CLEAR     52  32  46 S8        29.93S
ORANGE CITY *  CLEAR     54  34  47 S5        29.94R
SHELDON *      CLEAR     54  30  40 S8        29.92R
SIOUX CITY     CLEAR     54  32  43 S8        29.94S
SPENCER        CLEAR     49  34  56 S8        29.95S
STORM LAKE *   CLEAR     52  34  50 S9        29.97S
$$

IAZ055>058-069>071-079>083-090>094-230200-
   SOUTHWEST IOWA

CITY           SKY/WX    TMP DP  RH WIND       PRES   REMARKS
ATLANTIC *     CLEAR     48  36  61 S5        30.02F
AUDUBON *      CLEAR     46  39  76 CALM      30.02F
CLARINDA *     CLEAR     50  39  66 CALM      30.06F
COUNCIL BLFS * CLEAR     57  32  38 S9        30.00F
CRESTON *      CLEAR     52  36  54 S7        30.06S
HARLAN  *      CLEAR     52  36  54 S5        30.04S
LAMONI         CLEAR     54  38  54 S6        30.06S
RED OAK *      CLEAR     54  36  50 S5        30.03S
SHENANDOAH *   CLEAR     54  34  47 SE8       30.03F
$$

IAZ047>049-059>061-072>074-084-230200-
   CENTRAL IOWA

CITY           SKY/WX    TMP DP  RH WIND       PRES   REMARKS
AMES           CLEAR     45  39  79 SW5       30.03R
ANKENY *       CLEAR     52  41  66 S3        30.04S
BOONE *        CLEAR     54  32  43 S5        30.02S
CHARITON *     CLOUDY    50  43  76 S7        30.05F
DES MOINES     PTCLDY    53  41  63 S8        30.04R
GRINNELL*      CLOUDY    49  44  81 S6        30.06S
KNOXVILLE *    CLOUDY    52  43  71 S7        30.04F
MARSHALLTOWN   CLOUDY    52  44  74 S9        30.03S
NEWTON *       CLOUDY    48  45  87 S7        30.05S
PELLA *        PTCLDY    52  44  72 S6        30.06F
PERRY *          N/A     48  34  58 S6        30.02F
$$

IAZ004>006-015-016-023>025-035-036-230200-
   NORTH CENTRAL IOWA

CITY           SKY/WX    TMP DP  RH WIND       PRES   REMARKS
ALGONA *       CLEAR     55  34  44 S12       29.98S
CLARION *      CLEAR     48  37  66 S9        30.00F HAZE
ESTHERVILLE    CLEAR     49  34  56 S9        29.95S
FORT DODGE *   CLEAR     55  34  45 S6        30.00F
MASON CITY     CLEAR     45  34  65 S7        30.01S
FOREST CITY *    N/A     45  36  70 S6        29.99F
WEBSTER CITY * CLEAR     54  32  43 S8        29.99F
IOWA FALLS *     N/A     51  36  55 S7        30.03S
$$

IAZ007>011-017>019-026>030-037>042-050>054-066-230200-
   NORTHEAST IOWA

CITY           SKY/WX    TMP DP  RH WIND       PRES   REMARKS
CEDAR RAPIDS   CLOUDY    49  46  90 SE5       30.06S
CHARLES CITY * CLEAR     52  43  71 SE8       30.02S
CLINTON *      CLOUDY    50  49  96 W3        30.08S
DECORAH *      CLEAR     48  45  87 S8        30.02S
DUBUQUE        CLOUDY    49  46  90 S3        30.07R
MONTICELLO *   CLOUDY    50  48  93 CALM      30.07S
OELWEIN *      CLOUDY    48  46  93 S8        30.05S
WATERLOO       CLEAR     49  44  83 S8        30.03S
$$

IAZ064-065-067-068-078-230200-
   EAST CENTRAL IOWA

CITY           SKY/WX    TMP DP  RH WIND       PRES   REMARKS
DAVENPORT      CLOUDY    50  49  96 CALM      30.09S
IOWA CITY      CLOUDY    52  47  83 CALM      30.08F
MUSCATINE *    CLOUDY    52  50  93 CALM      30.08S
QUAD CITIES    CLOUDY    51  49  92 CALM      30.07S
$$

IAZ062-063-075>077-085>089-095>099-230200-
   SOUTHEAST IOWA

CITY           SKY/WX    TMP DP  RH WIND       PRES   REMARKS
BURLINGTON     CLOUDY    52  51  97 CALM      30.07F
FAIRFIELD *    CLOUDY    52  46  82 CALM      30.07F
FORT MADISON * CLOUDY    52  52 100 CALM      30.09R
KEOKUK *       CLOUDY    52  50  93 CALM      30.07S
OSKALOOSA *      N/A     50  47  90 S6        30.07S
OTTUMWA        CLOUDY    51  47  86 S3        30.06F
WASHINGTON *   CLOUDY    50  48  93 CALM      30.08F
$$

ABBREVIATIONS USED IN REMARKS
   TC - TEMPERATURES IN CELSIUS
  WCI - WIND CHILL INDEX
   HX - HEAT INDEX
  VSB - VISIBILITY
$$





USA.gov is the U.S. government's official web portal to all federal, state and local government web resources and services.